#datetime,building,power
2023-01-02T00:00:00,axn,32.08
2023-01-02T00:01:00,axn,32.46
2023-01-02T00:02:00,axn,32.08
2023-01-02T00:03:00,axn,31.93
2023-01-02T00:04:00,axn,31.93
2023-01-02T00:05:00,axn,32.15
2023-01-02T00:06:00,axn,32.18
2023-01-02T00:07:00,axn,32.64
2023-01-02T00:08:00,axn,32.35
2023-01-02T00:09:00,axn,32.31
2023-01-02T00:10:00,axn,31.99
2023-01-02T00:11:00,axn,31.90
2023-01-02T00:12:00,axn,31.96
2023-01-02T00:13:00,axn,32.59
2023-01-02T00:14:00,axn,32.45
2023-01-02T00:15:00,axn,32.47
2023-01-02T00:16:00,axn,32.54
2023-01-02T00:17:00,axn,32.11
2023-01-02T00:18:00,axn,32.04
2023-01-02T00:19:00,axn,31.99
2023-01-02T00:20:00,axn,31.99
2023-01-02T00:21:00,axn,32.28
2023-01-02T00:22:00,axn,32.03
2023-01-02T00:23:00,axn,32.06
2023-01-02T00:24:00,axn,32.25
2023-01-02T00:25:00,axn,31.95
2023-01-02T00:26:00,axn,31.67
2023-01-02T00:27:00,axn,31.49
2023-01-02T00:28:00,axn,31.45
2023-01-02T00:29:00,axn,31.46
2023-01-02T00:30:00,axn,31.89
2023-01-02T00:31:00,axn,31.69
2023-01-02T00:32:00,axn,31.84
2023-01-02T00:33:00,axn,31.94
2023-01-02T00:34:00,axn,32.05
2023-01-02T00:35:00,axn,31.96
2023-01-02T00:36:00,axn,32.01
2023-01-02T00:37:00,axn,32.24
2023-01-02T00:38:00,axn,32.18
2023-01-02T00:39:00,axn,32.39
2023-01-02T00:40:00,axn,32.69
2023-01-02T00:41:00,axn,32.27
2023-01-02T00:42:00,axn,32.34
2023-01-02T00:43:00,axn,32.44
2023-01-02T00:44:00,axn,32.48
2023-01-02T00:45:00,axn,32.45
2023-01-02T00:46:00,axn,35.39
2023-01-02T00:47:00,axn,35.24
2023-01-02T00:48:00,axn,35.11
2023-01-02T00:49:00,axn,32.41
2023-01-02T00:50:00,axn,32.15
2023-01-02T00:51:00,axn,32.17
2023-01-02T00:52:00,axn,32.24
2023-01-02T00:53:00,axn,32.27
2023-01-02T00:54:00,axn,32.03
2023-01-02T00:55:00,axn,31.92
2023-01-02T00:56:00,axn,32.14
2023-01-02T00:57:00,axn,32.15
2023-01-02T00:58:00,axn,32.62
2023-01-02T00:59:00,axn,32.19
2023-01-02T01:00:00,axn,32.26
2023-01-02T01:01:00,axn,32.44
2023-01-02T01:02:00,axn,32.44
2023-01-02T01:03:00,axn,32.48
2023-01-02T01:04:00,axn,32.56
2023-01-02T01:05:00,axn,32.23
2023-01-02T01:06:00,axn,32.36
2023-01-02T01:07:00,axn,31.96
2023-01-02T01:08:00,axn,31.87
2023-01-02T01:09:00,axn,31.90
2023-01-02T01:10:00,axn,31.71
2023-01-02T01:11:00,axn,31.67
2023-01-02T01:12:00,axn,31.75
2023-01-02T01:13:00,axn,31.91
2023-01-02T01:14:00,axn,32.45
2023-01-02T01:15:00,axn,32.46
2023-01-02T01:16:00,axn,32.03
2023-01-02T01:17:00,axn,32.30
2023-01-02T01:18:00,axn,32.34
2023-01-02T01:19:00,axn,32.12
2023-01-02T01:20:00,axn,31.68
2023-01-02T01:21:00,axn,31.75
2023-01-02T01:22:00,axn,32.10
2023-01-02T01:23:00,axn,32.08
2023-01-02T01:24:00,axn,31.99
2023-01-02T01:25:00,axn,32.27
2023-01-02T01:26:00,axn,32.06
2023-01-02T01:27:00,axn,31.84
2023-01-02T01:28:00,axn,31.82
2023-01-02T01:29:00,axn,31.87
2023-01-02T01:30:00,axn,31.89
2023-01-02T01:31:00,axn,31.91
2023-01-02T01:32:00,axn,32.06
2023-01-02T01:33:00,axn,32.28
2023-01-02T01:34:00,axn,32.27
2023-01-02T01:35:00,axn,32.11
2023-01-02T01:36:00,axn,32.48
2023-01-02T01:37:00,axn,31.82
2023-01-02T01:38:00,axn,31.70
2023-01-02T01:39:00,axn,31.69
2023-01-02T01:40:00,axn,31.65
2023-01-02T01:41:00,axn,31.54
2023-01-02T01:42:00,axn,32.18
2023-01-02T01:43:00,axn,32.43
2023-01-02T01:44:00,axn,32.23
2023-01-02T01:45:00,axn,32.33
2023-01-02T01:46:00,axn,32.34
2023-01-02T01:47:00,axn,32.04
2023-01-02T01:48:00,axn,32.22
2023-01-02T01:49:00,axn,32.47
2023-01-02T01:50:00,axn,32.13
2023-01-02T01:51:00,axn,32.22
2023-01-02T01:52:00,axn,32.34
2023-01-02T01:53:00,axn,32.64
2023-01-02T01:54:00,axn,32.70
2023-01-02T01:55:00,axn,32.70
2023-01-02T01:56:00,axn,32.26
2023-01-02T01:57:00,axn,32.56
2023-01-02T01:58:00,axn,32.12
2023-01-02T01:59:00,axn,32.33
2023-01-02T02:00:00,axn,32.43
2023-01-02T02:01:00,axn,32.43
2023-01-02T02:02:00,axn,32.36
2023-01-02T02:03:00,axn,32.46
2023-01-02T02:04:00,axn,32.40
2023-01-02T02:05:00,axn,32.20
2023-01-02T02:06:00,axn,32.47
2023-01-02T02:07:00,axn,32.80
2023-01-02T02:08:00,axn,32.52
2023-01-02T02:09:00,axn,32.38
2023-01-02T02:10:00,axn,32.42
2023-01-02T02:11:00,axn,32.46
2023-01-02T02:12:00,axn,43.09
2023-01-02T02:13:00,axn,42.83
2023-01-02T02:14:00,axn,42.83
2023-01-02T02:15:00,axn,42.62
2023-01-02T02:16:00,axn,42.34
2023-01-02T02:17:00,axn,32.28
2023-01-02T02:18:00,axn,32.61
2023-01-02T02:19:00,axn,32.44
2023-01-02T02:20:00,axn,32.45
2023-01-02T02:21:00,axn,32.40
2023-01-02T02:22:00,axn,32.52
2023-01-02T02:23:00,axn,32.58
2023-01-02T02:24:00,axn,32.80
2023-01-02T02:25:00,axn,32.24
2023-01-02T02:26:00,axn,32.30
2023-01-02T02:27:00,axn,32.45
2023-01-02T02:28:00,axn,32.82
2023-01-02T02:29:00,axn,32.47
2023-01-02T02:30:00,axn,32.51
2023-01-02T02:31:00,axn,32.38
2023-01-02T02:32:00,axn,32.46
2023-01-02T02:33:00,axn,32.26
2023-01-02T02:34:00,axn,32.65
2023-01-02T02:35:00,axn,32.14
2023-01-02T02:36:00,axn,32.12
2023-01-02T02:37:00,axn,31.87
2023-01-02T02:38:00,axn,31.86
2023-01-02T02:39:00,axn,31.89
2023-01-02T02:40:00,axn,31.97
2023-01-02T02:41:00,axn,31.88
2023-01-02T02:42:00,axn,32.21
2023-01-02T02:43:00,axn,32.25
2023-01-02T02:44:00,axn,32.31
2023-01-02T02:45:00,axn,32.25
2023-01-02T02:46:00,axn,32.06
2023-01-02T02:47:00,axn,31.98
2023-01-02T02:48:00,axn,31.83
2023-01-02T02:49:00,axn,32.04
2023-01-02T02:50:00,axn,32.03
2023-01-02T02:51:00,axn,32.13
2023-01-02T02:52:00,axn,35.26
2023-01-02T02:53:00,axn,35.39
2023-01-02T02:54:00,axn,32.72
2023-01-02T02:55:00,axn,32.83
2023-01-02T02:56:00,axn,32.35
2023-01-02T02:57:00,axn,32.20
2023-01-02T02:58:00,axn,32.12
2023-01-02T02:59:00,axn,32.17
2023-01-02T03:00:00,axn,32.13
2023-01-02T03:01:00,axn,32.22
2023-01-02T03:02:00,axn,32.00
2023-01-02T03:03:00,axn,32.17
2023-01-02T03:04:00,axn,32.24
2023-01-02T03:05:00,axn,32.22
2023-01-02T03:06:00,axn,32.14
2023-01-02T03:07:00,axn,32.06
2023-01-02T03:08:00,axn,32.39
2023-01-02T03:09:00,axn,32.04
2023-01-02T03:10:00,axn,31.97
2023-01-02T03:11:00,axn,31.80
2023-01-02T03:12:00,axn,31.72
2023-01-02T03:13:00,axn,31.83
2023-01-02T03:14:00,axn,32.06
2023-01-02T03:15:00,axn,32.15
2023-01-02T03:16:00,axn,32.18
2023-01-02T03:17:00,axn,31.98
2023-01-02T03:18:00,axn,32.07
2023-01-02T03:19:00,axn,31.99
2023-01-02T03:20:00,axn,32.16
2023-01-02T03:21:00,axn,32.21
2023-01-02T03:22:00,axn,32.16
2023-01-02T03:23:00,axn,32.25
2023-01-02T03:24:00,axn,31.93
2023-01-02T03:25:00,axn,32.09
2023-01-02T03:26:00,axn,31.68
2023-01-02T03:27:00,axn,31.56
2023-01-02T03:28:00,axn,31.93
2023-01-02T03:29:00,axn,31.75
2023-01-02T03:30:00,axn,31.98
2023-01-02T03:31:00,axn,31.96
2023-01-02T03:32:00,axn,31.90
2023-01-02T03:33:00,axn,32.47
2023-01-02T03:34:00,axn,31.79
2023-01-02T03:35:00,axn,31.89
2023-01-02T03:36:00,axn,31.91
2023-01-02T03:37:00,axn,31.99
2023-01-02T03:38:00,axn,31.96
2023-01-02T03:39:00,axn,31.82
2023-01-02T03:40:00,axn,32.55
2023-01-02T03:41:00,axn,37.89
2023-01-02T03:42:00,axn,38.00
2023-01-02T03:43:00,axn,37.97
2023-01-02T03:44:00,axn,32.27
2023-01-02T03:45:00,axn,31.91
2023-01-02T03:46:00,axn,32.26
2023-01-02T03:47:00,axn,32.26
2023-01-02T03:48:00,axn,37.66
2023-01-02T03:49:00,axn,32.68
2023-01-02T03:50:00,axn,32.73
2023-01-02T03:51:00,axn,32.63
2023-01-02T03:52:00,axn,32.69
2023-01-02T03:53:00,axn,47.36
2023-01-02T03:54:00,axn,47.01
2023-01-02T03:55:00,axn,46.82
2023-01-02T03:56:00,axn,46.98
2023-01-02T03:57:00,axn,46.77
2023-01-02T03:58:00,axn,35.15
2023-01-02T03:59:00,axn,35.19
2023-01-02T04:00:00,axn,35.37
2023-01-02T04:01:00,axn,32.35
2023-01-02T04:02:00,axn,32.42
2023-01-02T04:03:00,axn,32.37
2023-01-02T04:04:00,axn,32.34
2023-01-02T04:05:00,axn,32.11
2023-01-02T04:06:00,axn,31.94
2023-01-02T04:07:00,axn,31.74
2023-01-02T04:08:00,axn,31.85
2023-01-02T04:09:00,axn,31.57
2023-01-02T04:10:00,axn,31.53
2023-01-02T04:11:00,axn,31.97
2023-01-02T04:12:00,axn,31.68
2023-01-02T04:13:00,axn,32.13
2023-01-02T04:14:00,axn,31.86
2023-01-02T04:15:00,axn,31.81
2023-01-02T04:16:00,axn,31.95
2023-01-02T04:17:00,axn,31.71
2023-01-02T04:18:00,axn,31.95
2023-01-02T04:19:00,axn,31.90
2023-01-02T04:20:00,axn,31.89
2023-01-02T04:21:00,axn,32.10
2023-01-02T04:22:00,axn,32.04
2023-01-02T04:23:00,axn,32.36
2023-01-02T04:24:00,axn,32.31
2023-01-02T04:25:00,axn,32.04
2023-01-02T04:26:00,axn,32.22
2023-01-02T04:27:00,axn,32.13
2023-01-02T04:28:00,axn,31.80
2023-01-02T04:29:00,axn,32.12
2023-01-02T04:30:00,axn,31.85
2023-01-02T04:31:00,axn,31.75
2023-01-02T04:32:00,axn,31.70
2023-01-02T04:33:00,axn,32.06
2023-01-02T04:34:00,axn,31.92
2023-01-02T04:35:00,axn,32.20
2023-01-02T04:36:00,axn,31.79
2023-01-02T04:37:00,axn,32.20
2023-01-02T04:38:00,axn,31.56
2023-01-02T04:39:00,axn,31.59
2023-01-02T04:40:00,axn,31.68
2023-01-02T04:41:00,axn,31.56
2023-01-02T04:42:00,axn,31.52
2023-01-02T04:43:00,axn,31.72
2023-01-02T04:44:00,axn,31.85
2023-01-02T04:45:00,axn,36.32
2023-01-02T04:46:00,axn,36.21
2023-01-02T04:47:00,axn,35.92
2023-01-02T04:48:00,axn,31.05
2023-01-02T04:49:00,axn,31.44
2023-01-02T04:50:00,axn,31.10
2023-01-02T04:51:00,axn,30.97
2023-01-02T04:52:00,axn,31.05
2023-01-02T04:53:00,axn,31.21
2023-01-02T04:54:00,axn,31.04
2023-01-02T04:55:00,axn,31.56
2023-01-02T04:56:00,axn,30.93
2023-01-02T04:57:00,axn,31.19
2023-01-02T04:58:00,axn,30.97
2023-01-02T04:59:00,axn,31.01
2023-01-02T05:00:00,axn,31.10
2023-01-02T05:01:00,axn,31.34
2023-01-02T05:02:00,axn,31.21
2023-01-02T05:03:00,axn,31.38
2023-01-02T05:04:00,axn,31.32
2023-01-02T05:05:00,axn,31.36
2023-01-02T05:06:00,axn,31.24
2023-01-02T05:07:00,axn,31.27
2023-01-02T05:08:00,axn,31.29
2023-01-02T05:09:00,axn,31.69
2023-01-02T05:10:00,axn,31.57
2023-01-02T05:11:00,axn,31.48
2023-01-02T05:12:00,axn,31.78
2023-01-02T05:13:00,axn,31.62
2023-01-02T05:14:00,axn,32.03
2023-01-02T05:15:00,axn,32.00
2023-01-02T05:16:00,axn,31.91
2023-01-02T05:17:00,axn,31.55
2023-01-02T05:18:00,axn,31.46
2023-01-02T05:19:00,axn,31.58
2023-01-02T05:20:00,axn,32.17
2023-01-02T05:21:00,axn,31.70
2023-01-02T05:22:00,axn,31.46
2023-01-02T05:23:00,axn,31.59
2023-01-02T05:24:00,axn,31.74
2023-01-02T05:25:00,axn,31.48
2023-01-02T05:26:00,axn,31.49
2023-01-02T05:27:00,axn,31.20
2023-01-02T05:28:00,axn,31.16
2023-01-02T05:29:00,axn,31.41
2023-01-02T05:30:00,axn,31.32
2023-01-02T05:31:00,axn,31.63
2023-01-02T05:32:00,axn,31.00
2023-01-02T05:33:00,axn,30.98
2023-01-02T05:34:00,axn,31.03
2023-01-02T05:35:00,axn,31.08
2023-01-02T05:36:00,axn,30.68
2023-01-02T05:37:00,axn,30.65
2023-01-02T05:38:00,axn,30.79
2023-01-02T05:39:00,axn,30.98
2023-01-02T05:40:00,axn,30.86
2023-01-02T05:41:00,axn,30.85
2023-01-02T05:42:00,axn,31.56
2023-01-02T05:43:00,axn,30.67
2023-01-02T05:44:00,axn,31.20
2023-01-02T05:45:00,axn,30.84
2023-01-02T05:46:00,axn,30.67
2023-01-02T05:47:00,axn,30.56
2023-01-02T05:48:00,axn,30.76
2023-01-02T05:49:00,axn,30.77
2023-01-02T05:50:00,axn,31.02
2023-01-02T05:51:00,axn,31.31
2023-01-02T05:52:00,axn,41.89
2023-01-02T05:53:00,axn,41.47
2023-01-02T05:54:00,axn,41.47
2023-01-02T05:55:00,axn,41.13
2023-01-02T05:56:00,axn,31.07
2023-01-02T05:57:00,axn,31.23
2023-01-02T05:58:00,axn,31.82
2023-01-02T05:59:00,axn,31.15
2023-01-02T06:00:00,axn,31.27
2023-01-02T06:01:00,axn,31.23
2023-01-02T06:02:00,axn,31.22
2023-01-02T06:03:00,axn,31.20
2023-01-02T06:04:00,axn,31.41
2023-01-02T06:05:00,axn,31.20
2023-01-02T06:06:00,axn,30.86
2023-01-02T06:07:00,axn,31.31
2023-01-02T06:08:00,axn,30.78
2023-01-02T06:09:00,axn,30.75
2023-01-02T06:10:00,axn,31.45
2023-01-02T06:11:00,axn,30.91
2023-01-02T06:12:00,axn,30.97
2023-01-02T06:13:00,axn,31.38
2023-01-02T06:14:00,axn,30.83
2023-01-02T06:15:00,axn,30.81
2023-01-02T06:16:00,axn,30.74
2023-01-02T06:17:00,axn,30.61
2023-01-02T06:18:00,axn,30.22
2023-01-02T06:19:00,axn,30.39
2023-01-02T06:20:00,axn,30.33
2023-01-02T06:21:00,axn,30.20
2023-01-02T06:22:00,axn,30.21
2023-01-02T06:23:00,axn,30.60
2023-01-02T06:24:00,axn,30.62
2023-01-02T06:25:00,axn,30.88
2023-01-02T06:26:00,axn,33.56
2023-01-02T06:27:00,axn,30.31
2023-01-02T06:28:00,axn,30.33
2023-01-02T06:29:00,axn,30.26
2023-01-02T06:30:00,axn,30.52
2023-01-02T06:31:00,axn,30.19
2023-01-02T06:32:00,axn,30.95
2023-01-02T06:33:00,axn,30.40
2023-01-02T06:34:00,axn,30.37
2023-01-02T06:35:00,axn,30.60
2023-01-02T06:36:00,axn,30.73
2023-01-02T06:37:00,axn,30.71
2023-01-02T06:38:00,axn,30.64
2023-01-02T06:39:00,axn,31.06
2023-01-02T06:40:00,axn,30.84
2023-01-02T06:41:00,axn,30.86
2023-01-02T06:42:00,axn,30.34
2023-01-02T06:43:00,axn,30.62
2023-01-02T06:44:00,axn,30.54
2023-01-02T06:45:00,axn,30.41
2023-01-02T06:46:00,axn,30.30
2023-01-02T06:47:00,axn,30.37
2023-01-02T06:48:00,axn,30.21
2023-01-02T06:49:00,axn,30.28
2023-01-02T06:50:00,axn,30.30
2023-01-02T06:51:00,axn,30.50
2023-01-02T06:52:00,axn,30.36
2023-01-02T06:53:00,axn,30.35
2023-01-02T06:54:00,axn,30.31
2023-01-02T06:55:00,axn,30.03
2023-01-02T06:56:00,axn,30.13
2023-01-02T06:57:00,axn,30.38
2023-01-02T06:58:00,axn,30.49
2023-01-02T06:59:00,axn,30.45
2023-01-02T07:00:00,axn,30.34
2023-01-02T07:01:00,axn,30.48
2023-01-02T07:02:00,axn,30.38
2023-01-02T07:03:00,axn,30.55
2023-01-02T07:04:00,axn,30.69
2023-01-02T07:05:00,axn,30.41
2023-01-02T07:06:00,axn,30.29
2023-01-02T07:07:00,axn,30.28
2023-01-02T07:08:00,axn,30.47
2023-01-02T07:09:00,axn,30.56
2023-01-02T07:10:00,axn,33.27
2023-01-02T07:11:00,axn,32.94
2023-01-02T07:12:00,axn,32.94
2023-01-02T07:13:00,axn,30.15
2023-01-02T07:14:00,axn,30.66
2023-01-02T07:15:00,axn,30.90
2023-01-02T07:16:00,axn,30.27
2023-01-02T07:17:00,axn,30.21
2023-01-02T07:18:00,axn,30.35
2023-01-02T07:19:00,axn,30.18
2023-01-02T07:20:00,axn,30.39
2023-01-02T07:21:00,axn,30.24
2023-01-02T07:22:00,axn,30.27
2023-01-02T07:23:00,axn,30.50
2023-01-02T07:24:00,axn,30.65
2023-01-02T07:25:00,axn,30.55
2023-01-02T07:26:00,axn,30.80
2023-01-02T07:27:00,axn,30.38
2023-01-02T07:28:00,axn,30.72
2023-01-02T07:29:00,axn,30.45
2023-01-02T07:30:00,axn,30.27
2023-01-02T07:31:00,axn,30.40
2023-01-02T07:32:00,axn,30.37
2023-01-02T07:33:00,axn,30.52
2023-01-02T07:34:00,axn,30.50
2023-01-02T07:35:00,axn,30.56
2023-01-02T07:36:00,axn,30.41
2023-01-02T07:37:00,axn,30.53
2023-01-02T07:38:00,axn,30.29
2023-01-02T07:39:00,axn,30.30
2023-01-02T07:40:00,axn,30.27
2023-01-02T07:41:00,axn,30.17
2023-01-02T07:42:00,axn,30.09
2023-01-02T07:43:00,axn,30.85
2023-01-02T07:44:00,axn,30.47
2023-01-02T07:45:00,axn,30.68
2023-01-02T07:46:00,axn,30.31
2023-01-02T07:47:00,axn,30.07
2023-01-02T07:48:00,axn,30.12
2023-01-02T07:49:00,axn,29.85
2023-01-02T07:50:00,axn,30.22
2023-01-02T07:51:00,axn,29.75
2023-01-02T07:52:00,axn,29.63
2023-01-02T07:53:00,axn,29.73
2023-01-02T07:54:00,axn,30.16
2023-01-02T07:55:00,axn,30.07
2023-01-02T07:56:00,axn,29.71
2023-01-02T07:57:00,axn,29.71
2023-01-02T07:58:00,axn,29.68
2023-01-02T07:59:00,axn,44.00
2023-01-02T08:00:00,axn,44.30
2023-01-02T08:01:00,axn,43.47
2023-01-02T08:02:00,axn,43.09
2023-01-02T08:03:00,axn,43.27
2023-01-02T08:04:00,axn,29.54
2023-01-02T08:05:00,axn,29.50
2023-01-02T08:06:00,axn,30.31
2023-01-02T08:07:00,axn,29.69
2023-01-02T08:08:00,axn,29.61
2023-01-02T08:09:00,axn,29.48
2023-01-02T08:10:00,axn,29.46
2023-01-02T08:11:00,axn,29.29
2023-01-02T08:12:00,axn,29.44
2023-01-02T08:13:00,axn,29.58
2023-01-02T08:14:00,axn,29.41
2023-01-02T08:15:00,axn,29.23
2023-01-02T08:16:00,axn,29.42
2023-01-02T08:17:00,axn,29.14
2023-01-02T08:18:00,axn,29.25
2023-01-02T08:19:00,axn,29.27
2023-01-02T08:20:00,axn,29.35
2023-01-02T08:21:00,axn,29.22
2023-01-02T08:22:00,axn,29.19
2023-01-02T08:23:00,axn,29.22
2023-01-02T08:24:00,axn,29.43
2023-01-02T08:25:00,axn,29.18
2023-01-02T08:26:00,axn,28.88
2023-01-02T08:27:00,axn,28.54
2023-01-02T08:28:00,axn,28.66
2023-01-02T08:29:00,axn,28.91
2023-01-02T08:30:00,axn,29.16
2023-01-02T08:31:00,axn,28.94
2023-01-02T08:32:00,axn,28.84
2023-01-02T08:33:00,axn,29.01
2023-01-02T08:34:00,axn,28.97
2023-01-02T08:35:00,axn,28.72
2023-01-02T08:36:00,axn,28.84
2023-01-02T08:37:00,axn,28.64
2023-01-02T08:38:00,axn,28.61
2023-01-02T08:39:00,axn,28.62
2023-01-02T08:40:00,axn,29.27
2023-01-02T08:41:00,axn,28.95
2023-01-02T08:42:00,axn,29.24
2023-01-02T08:43:00,axn,29.20
2023-01-02T08:44:00,axn,29.39
2023-01-02T08:45:00,axn,29.46
2023-01-02T08:46:00,axn,29.16
2023-01-02T08:47:00,axn,29.04
2023-01-02T08:48:00,axn,29.54
2023-01-02T08:49:00,axn,29.38
2023-01-02T08:50:00,axn,29.15
2023-01-02T08:51:00,axn,29.22
2023-01-02T08:52:00,axn,29.28
2023-01-02T08:53:00,axn,29.27
2023-01-02T08:54:00,axn,29.36
2023-01-02T08:55:00,axn,29.15
2023-01-02T08:56:00,axn,29.63
2023-01-02T08:57:00,axn,29.18
2023-01-02T08:58:00,axn,29.64
2023-01-02T08:59:00,axn,29.53
2023-01-02T09:00:00,axn,29.42
2023-01-02T09:01:00,axn,29.34
2023-01-02T09:02:00,axn,29.76
2023-01-02T09:03:00,axn,29.48
2023-01-02T09:04:00,axn,29.85
2023-01-02T09:05:00,axn,29.64
2023-01-02T09:06:00,axn,29.96
2023-01-02T09:07:00,axn,29.72
2023-01-02T09:08:00,axn,29.84
2023-01-02T09:09:00,axn,29.66
2023-01-02T09:10:00,axn,29.72
2023-01-02T09:11:00,axn,29.50
2023-01-02T09:12:00,axn,29.45
2023-01-02T09:13:00,axn,29.59
2023-01-02T09:14:00,axn,29.79
2023-01-02T09:15:00,axn,29.93
2023-01-02T09:16:00,axn,30.01
2023-01-02T09:17:00,axn,29.99
2023-01-02T09:18:00,axn,30.51
2023-01-02T09:19:00,axn,30.01
2023-01-02T09:20:00,axn,30.00
2023-01-02T09:21:00,axn,30.16
2023-01-02T09:22:00,axn,40.27
2023-01-02T09:23:00,axn,40.09
2023-01-02T09:24:00,axn,42.89
2023-01-02T09:25:00,axn,43.11
2023-01-02T09:26:00,axn,29.65
2023-01-02T09:27:00,axn,29.65
2023-01-02T09:28:00,axn,30.16
2023-01-02T09:29:00,axn,29.66
2023-01-02T09:30:00,axn,30.01
2023-01-02T09:31:00,axn,30.59
2023-01-02T09:32:00,axn,29.89
2023-01-02T09:33:00,axn,29.92
2023-01-02T09:34:00,axn,29.61
2023-01-02T09:35:00,axn,29.90
2023-01-02T09:36:00,axn,29.70
2023-01-02T09:37:00,axn,29.60
2023-01-02T09:38:00,axn,29.61
2023-01-02T09:39:00,axn,29.66
2023-01-02T09:40:00,axn,29.80
2023-01-02T09:41:00,axn,29.75
2023-01-02T09:42:00,axn,29.86
2023-01-02T09:43:00,axn,29.87
2023-01-02T09:44:00,axn,29.97
2023-01-02T09:45:00,axn,29.87
2023-01-02T09:46:00,axn,29.73
2023-01-02T09:47:00,axn,30.41
2023-01-02T09:48:00,axn,30.59
2023-01-02T09:49:00,axn,30.29
2023-01-02T09:50:00,axn,30.69
2023-01-02T09:51:00,axn,30.14
2023-01-02T09:52:00,axn,29.93
2023-01-02T09:53:00,axn,30.11
2023-01-02T09:54:00,axn,30.14
2023-01-02T09:55:00,axn,30.17
2023-01-02T09:56:00,axn,30.71
2023-01-02T09:57:00,axn,30.81
2023-01-02T09:58:00,axn,30.98
2023-01-02T09:59:00,axn,30.55
2023-01-02T10:00:00,axn,30.30
2023-01-02T10:01:00,axn,30.64
2023-01-02T10:02:00,axn,30.87
2023-01-02T10:03:00,axn,30.54
2023-01-02T10:04:00,axn,30.54
2023-01-02T10:05:00,axn,30.33
2023-01-02T10:06:00,axn,30.36
2023-01-02T10:07:00,axn,30.15
2023-01-02T10:08:00,axn,30.19
2023-01-02T10:09:00,axn,30.11
2023-01-02T10:10:00,axn,30.17
2023-01-02T10:11:00,axn,30.05
2023-01-02T10:12:00,axn,30.34
2023-01-02T10:13:00,axn,29.95
2023-01-02T10:14:00,axn,30.34
2023-01-02T10:15:00,axn,30.29
2023-01-02T10:16:00,axn,30.23
2023-01-02T10:17:00,axn,30.31
2023-01-02T10:18:00,axn,30.41
2023-01-02T10:19:00,axn,30.37
2023-01-02T10:20:00,axn,30.35
2023-01-02T10:21:00,axn,33.16
2023-01-02T10:22:00,axn,33.21
2023-01-02T10:23:00,axn,33.11
2023-01-02T10:24:00,axn,30.45
2023-01-02T10:25:00,axn,30.78
2023-01-02T10:26:00,axn,30.41
2023-01-02T10:27:00,axn,30.40
2023-01-02T10:28:00,axn,30.39
2023-01-02T10:29:00,axn,30.10
2023-01-02T10:30:00,axn,30.08
2023-01-02T10:31:00,axn,30.34
2023-01-02T10:32:00,axn,29.75
2023-01-02T10:33:00,axn,30.08
2023-01-02T10:34:00,axn,30.03
2023-01-02T10:35:00,axn,29.88
2023-01-02T10:36:00,axn,30.33
2023-01-02T10:37:00,axn,29.91
2023-01-02T10:38:00,axn,29.89
2023-01-02T10:39:00,axn,30.05
2023-01-02T10:40:00,axn,29.97
2023-01-02T10:41:00,axn,30.00
2023-01-02T10:42:00,axn,30.06
2023-01-02T10:43:00,axn,30.04
2023-01-02T10:44:00,axn,30.26
2023-01-02T10:45:00,axn,30.26
2023-01-02T10:46:00,axn,30.25
2023-01-02T10:47:00,axn,30.13
2023-01-02T10:48:00,axn,30.58
2023-01-02T10:49:00,axn,30.18
2023-01-02T10:50:00,axn,30.06
2023-01-02T10:51:00,axn,30.29
2023-01-02T10:52:00,axn,30.57
2023-01-02T10:53:00,axn,30.12
2023-01-02T10:54:00,axn,30.03
2023-01-02T10:55:00,axn,30.33
2023-01-02T10:56:00,axn,30.87
2023-01-02T10:57:00,axn,30.42
2023-01-02T10:58:00,axn,30.67
2023-01-02T10:59:00,axn,30.92
2023-01-02T11:00:00,axn,30.69
2023-01-02T11:01:00,axn,30.36
2023-01-02T11:02:00,axn,30.33
2023-01-02T11:03:00,axn,30.53
2023-01-02T11:04:00,axn,31.01
2023-01-02T11:05:00,axn,30.77
2023-01-02T11:06:00,axn,30.54
2023-01-02T11:07:00,axn,30.57
2023-01-02T11:08:00,axn,30.60
2023-01-02T11:09:00,axn,30.50
2023-01-02T11:10:00,axn,30.66
2023-01-02T11:11:00,axn,30.85
2023-01-02T11:12:00,axn,30.57
2023-01-02T11:13:00,axn,30.66
2023-01-02T11:14:00,axn,30.58
2023-01-02T11:15:00,axn,30.50
2023-01-02T11:16:00,axn,30.43
2023-01-02T11:17:00,axn,30.65
2023-01-02T11:18:00,axn,31.12
2023-01-02T11:19:00,axn,30.95
2023-01-02T11:20:00,axn,31.04
2023-01-02T11:21:00,axn,30.56
2023-01-02T11:22:00,axn,30.90
2023-01-02T11:23:00,axn,30.83
2023-01-02T11:24:00,axn,36.58
2023-01-02T11:25:00,axn,36.78
2023-01-02T11:26:00,axn,36.44
2023-01-02T11:27:00,axn,30.66
2023-01-02T11:28:00,axn,30.35
2023-01-02T11:29:00,axn,30.68
2023-01-02T11:30:00,axn,30.91
2023-01-02T11:31:00,axn,30.92
2023-01-02T11:32:00,axn,31.27
2023-01-02T11:33:00,axn,30.93
2023-01-02T11:34:00,axn,30.84
2023-01-02T11:35:00,axn,30.69
2023-01-02T11:36:00,axn,30.31
2023-01-02T11:37:00,axn,30.40
2023-01-02T11:38:00,axn,30.13
2023-01-02T11:39:00,axn,30.07
2023-01-02T11:40:00,axn,30.56
2023-01-02T11:41:00,axn,30.14
2023-01-02T11:42:00,axn,30.01
2023-01-02T11:43:00,axn,30.03
2023-01-02T11:44:00,axn,30.11
2023-01-02T11:45:00,axn,30.21
2023-01-02T11:46:00,axn,30.58
2023-01-02T11:47:00,axn,30.22
2023-01-02T11:48:00,axn,34.44
2023-01-02T11:49:00,axn,34.79
2023-01-02T11:50:00,axn,34.43
2023-01-02T11:51:00,axn,29.34
2023-01-02T11:52:00,axn,29.32
2023-01-02T11:53:00,axn,29.49
2023-01-02T11:54:00,axn,29.78
2023-01-02T11:55:00,axn,29.38
2023-01-02T11:56:00,axn,29.37
2023-01-02T11:57:00,axn,29.26
2023-01-02T11:58:00,axn,29.22
2023-01-02T11:59:00,axn,29.13
2023-01-02T12:00:00,axn,29.26
2023-01-02T12:01:00,axn,29.18
2023-01-02T12:02:00,axn,29.35
2023-01-02T12:03:00,axn,29.60
2023-01-02T12:04:00,axn,29.51
2023-01-02T12:05:00,axn,29.48
2023-01-02T12:06:00,axn,29.52
2023-01-02T12:07:00,axn,29.31
2023-01-02T12:08:00,axn,43.86
2023-01-02T12:09:00,axn,43.80
2023-01-02T12:10:00,axn,44.18
2023-01-02T12:11:00,axn,43.41
2023-01-02T12:12:00,axn,43.45
2023-01-02T12:13:00,axn,29.28
2023-01-02T12:14:00,axn,29.42
2023-01-02T12:15:00,axn,29.32
2023-01-02T12:16:00,axn,29.27
2023-01-02T12:17:00,axn,29.35
2023-01-02T12:18:00,axn,29.44
2023-01-02T12:19:00,axn,29.50
2023-01-02T12:20:00,axn,29.48
2023-01-02T12:21:00,axn,29.58
2023-01-02T12:22:00,axn,29.35
2023-01-02T12:23:00,axn,34.79
2023-01-02T12:24:00,axn,29.02
2023-01-02T12:25:00,axn,29.11
2023-01-02T12:26:00,axn,29.20
2023-01-02T12:27:00,axn,29.22
2023-01-02T12:28:00,axn,29.35
2023-01-02T12:29:00,axn,29.59
2023-01-02T12:30:00,axn,29.46
2023-01-02T12:31:00,axn,29.81
2023-01-02T12:32:00,axn,32.29
2023-01-02T12:33:00,axn,32.31
2023-01-02T12:34:00,axn,29.44
2023-01-02T12:35:00,axn,29.57
2023-01-02T12:36:00,axn,29.68
2023-01-02T12:37:00,axn,29.45
2023-01-02T12:38:00,axn,29.32
2023-01-02T12:39:00,axn,29.39
2023-01-02T12:40:00,axn,29.73
2023-01-02T12:41:00,axn,29.35
2023-01-02T12:42:00,axn,29.72
2023-01-02T12:43:00,axn,29.51
2023-01-02T12:44:00,axn,29.28
2023-01-02T12:45:00,axn,29.50
2023-01-02T12:46:00,axn,29.29
2023-01-02T12:47:00,axn,29.09
2023-01-02T12:48:00,axn,29.11
2023-01-02T12:49:00,axn,29.45
2023-01-02T12:50:00,axn,29.24
2023-01-02T12:51:00,axn,29.14
2023-01-02T12:52:00,axn,29.16
2023-01-02T12:53:00,axn,29.26
2023-01-02T12:54:00,axn,29.55
2023-01-02T12:55:00,axn,39.39
2023-01-02T12:56:00,axn,39.72
2023-01-02T12:57:00,axn,39.50
2023-01-02T12:58:00,axn,39.42
2023-01-02T12:59:00,axn,29.38
2023-01-02T13:00:00,axn,29.47
2023-01-02T13:01:00,axn,30.06
2023-01-02T13:02:00,axn,29.63
2023-01-02T13:03:00,axn,29.61
2023-01-02T13:04:00,axn,29.62
2023-01-02T13:05:00,axn,29.62
2023-01-02T13:06:00,axn,29.65
2023-01-02T13:07:00,axn,29.62
2023-01-02T13:08:00,axn,29.54
2023-01-02T13:09:00,axn,29.41
2023-01-02T13:10:00,axn,29.43
2023-01-02T13:11:00,axn,29.20
2023-01-02T13:12:00,axn,29.28
2023-01-02T13:13:00,axn,29.28
2023-01-02T13:14:00,axn,29.23
2023-01-02T13:15:00,axn,29.89
2023-01-02T13:16:00,axn,29.04
2023-01-02T13:17:00,axn,29.23
2023-01-02T13:18:00,axn,29.29